Weather Roundup
Issued by NWS Chicago, IL

Home | Current Version | Previous Version | Graphics & Text | Print | Product List | Glossary On
Versions: 1 2 3 4 5 6 7 8 9 10 11 12 13 14 15 16 17 18 19 20 21 22 23 24 25 26 27 28 29 30 31 32 33 34 35 36 37 38 39 40 41 42 43 44 45 46 47 48 49 50
000
NZUS59 KLOT 270702
HRRLOT

CHICAGO AREA WEATHER ROUNDUP
NATIONAL WEATHER SERVICE CHICAGO/ROMEOVILLE IL
200 AM CDT FRI MAR 27 2015

NOTE: "FAIR" INDICATES FEW OR NO CLOUDS BELOW 12,000 FEET WITH NO
SIGNIFICANT WEATHER AND/OR OBSTRUCTIONS TO VISIBILITY.

* THESE STATIONS ARE NOT UNDER NWS QUALITY CONTROL. THEY ALSO MAY NOT
  REPORT WEATHER SUCH AS PRECIPITATION OR FOG.

ILZ005-006-012>014-019>023-270800-
NORTHEAST ILLINOIS

CITY           SKY/WX    TMP DP  RH WIND       PRES   REMARKS
OHARE          MOCLDY    31  18  58 N9        30.06F WCI  23
MIDWAY         LGT SNOW  32  22  66 N13       30.07S FOG     WCI  22
AURORA         CLOUDY    31  17  56 N13       30.08S WCI  21
WAUKEGAN       SNOW      26  25  96 NE8       30.08S VSB 1/2 WCI  18
DUPAGE AIRPORT CLOUDY    30  17  58 NW8       30.06F WCI  22
WHEELING       FLURRIES  29  24  82 N10       30.09S WCI  20
NORTHERLY IS     N/A     30  25  81 N16         N/A  WCI  19
$$

WIZ051-052-058>065-066-070>072-270800-
SOUTHEAST WISCONSIN

CITY           SKY/WX    TMP DP  RH WIND       PRES   REMARKS
MILWAUKEE      LGT SNOW  26  20  77 N9        30.10S WCI  17
KENOSHA*       FLURRIES  27  23  85 N14       30.09S WCI  16
RACINE*        LGT SNOW  26  22  84 N10       30.11S FOG     WCI  16
$$

INZ001>003-010>013-019-020-270800-
NORTHWEST INDIANA

CITY           SKY/WX    TMP DP  RH WIND       PRES   REMARKS
GARY*          CLOUDY    32  24  71 N12       30.07S WCI  23
MICHIGAN CITY* NOT AVBL
RENSSELAER*    NOT AVBL
VALPARAISO     FLURRIES  29  24  82 N9        30.04R WCI  20
$$

LMZ740>746-270800-
SOUTHERN LAKE MICHIGAN

STATION/POSITION TIME  SKY/WX   TEMP WIND        PRES    VSBY
                                AIR  DIR/SP/G
                 (UTC)          (F)  (DEG/KT/KT) (MB)    (MI)
HARRISON CRIB    0600            30   20/ 20/ 23   N/A
BURNHAM HARBOR   0700            29   10/ 15/ 19   N/A
CALUMET HARBOR   0600            32  360/ 16/ 19 1016.9S
BURNS HARBOR     0600            31   20/ 18/ 21 1017.9F
MICHIGAN CITY    0600            29  360/ 22/ 24   N/A
$$

ABBREVIATIONS USED IN REMARKS
   TC - TEMPERATURE IN CELSIUS
  WCI - WIND CHILL INDEX
   HX - HEAT INDEX
  VSB - VISIBILITY
$$


USA.gov is the U.S. government's official web portal to all federal, state and local government web resources and services.